Home   Weather   Syktyvkar   Past weeks

Flag for Russia Past Weather in Syktyvkar, Russia — Yesterday and Last 2 Weeks

25 °F


Feels Like: 16 °F
Forecast: 27 / 31 °F
Wind: 8 mph from South

Location: Syktyvkar Airport

Current Time: Oct 27, 2016 at 8:00:30 AM

Latest Report: Oct 27, 2016 at 7:00 AM

Visibility: 10 mi

Pressure: 30.54 "Hg

Humidity: 86%

Dew Point: 21 °F

Location of SyktyvkarLocation

Past Weather in Syktyvkar — Graph


Syktyvkar Temperature Yesterday

Maximum temperature yesterday: 32 °F (at 11:30 AM)
Minimum temperature yesterday: 27 °F (at 6:00 AM)
Average temperature yesterday: 30 °F

High & Low Weather Summary for the Past Weeks

High41 °F (Oct 13, 2:00 PM)100% (Oct 12, 7:00 AM)31.04 "Hg (Oct 12, 7:00 AM)
Low25 °F (Oct 27, 2:00 AM)69% (Oct 26, 11:30 AM)29.95 "Hg (Oct 13, 11:00 AM)
Average34 °F90%30.48 "Hg
* Reported Oct 12 7:00 AM — Oct 27 7:00 AM, Syktyvkar, Weather by CustomWeather, © 2016

Note: Actual official high and low records may vary slightly from our data, if they occured in-between our weather recording intervals... More about our weather records


Syktyvkar Weather History for the Previous 24 Hours

Scroll right to see more
Time TempWeatherWind HumidityBarometerVisibility
7:00 AM
Thu, Oct 27
25 °FSunny.8 mph86%30.54 "Hg10 mi
6:30 AM25 °FClear.8 mph86%30.54 "Hg10 mi
6:00 AM25 °FClear.8 mph86%30.54 "Hg10 mi
5:30 AM25 °FClear.8 mph86%30.54 "Hg10 mi
5:00 AM25 °FClear.8 mph86%30.54 "Hg10 mi
4:00 AM25 °FClear.8 mph93%30.54 "Hg10 mi
3:00 AM25 °FClear.8 mph93%30.54 "Hg10 mi
2:30 AM25 °FClear.8 mph93%30.54 "Hg10 mi
2:00 AM25 °FClear.8 mph93%30.54 "Hg10 mi
1:30 AM27 °FClear.8 mph86%30.54 "Hg10 mi
1:00 AM27 °FClear.8 mph86%30.57 "Hg10 mi
12:30 AM27 °FClear.10 mph86%30.57 "Hg10 mi
12:00 AM27 °FPassing clouds.10 mph86%30.57 "HgN/A
11:30 PM
Wed, Oct 26
27 °FPassing clouds.8 mph86%30.57 "HgN/A
11:00 PM28 °FPassing clouds.8 mph80%30.57 "HgN/A
10:30 PM28 °FClear.8 mph80%30.57 "Hg10 mi
10:00 PM28 °FClear.8 mph80%30.57 "Hg10 mi
9:30 PM30 °FClear.8 mph75%30.57 "Hg10 mi
9:00 PM30 °FClear.8 mph75%30.57 "Hg10 mi
8:30 PM30 °FClear.8 mph75%30.57 "Hg10 mi
8:00 PM30 °FClear.8 mph75%30.57 "Hg10 mi
7:30 PM32 °FClear.8 mph69%30.57 "Hg10 mi
7:00 PM32 °FClear.8 mph69%30.57 "Hg10 mi
6:30 PM32 °FClear.8 mph69%30.57 "Hg10 mi
6:00 PM32 °FClear.8 mph69%30.57 "Hg10 mi
5:30 PM30 °FClear.8 mph75%30.57 "Hg10 mi
5:00 PM32 °FClear.10 mph69%30.60 "Hg10 mi
4:30 PM32 °FClear.8 mph69%30.60 "Hg10 mi
4:00 PM32 °FClear.8 mph69%30.60 "Hg10 mi
3:30 PM32 °FSunny.10 mph69%30.60 "Hg10 mi
3:00 PM32 °FSunny.10 mph69%30.63 "Hg10 mi
2:00 PM32 °FSunny.8 mph69%30.63 "Hg10 mi
1:30 PM32 °FSunny.8 mph69%30.63 "Hg10 mi
1:00 PM32 °FSunny.10 mph69%30.63 "Hg10 mi
12:30 PM32 °FSunny.8 mph69%30.66 "Hg10 mi
12:00 PM32 °FSunny.8 mph69%30.66 "Hg10 mi
11:30 AM32 °FSunny.8 mph69%30.66 "Hg10 mi
11:00 AM30 °FSunny.8 mph75%30.66 "Hg10 mi
10:30 AM30 °FSunny.8 mph75%30.69 "Hg10 mi
10:00 AM28 °FPassing clouds.8 mph80%30.69 "HgN/A
9:30 AM28 °FScattered clouds.8 mph74%30.69 "HgN/A
9:00 AM28 °FScattered clouds.10 mph80%30.69 "HgN/A
8:30 AM28 °FPartly sunny.8 mph74%30.69 "HgN/A
8:00 AM27 °FPartly sunny.8 mph80%30.69 "HgN/A
Weather by CustomWeather, © 2016

See weather overviewHow to use our weather pages